This demonstration page uses our WeatherBlox Daily Observations layout. Learn more.

Left ArrowRight Arrow

Hourly Observations for November 19, 2016

Temp ( °F °C ) Dew Point ( °F °C ) Humidity (%) Winds ( mph kmh ) Pressure ( in mb ) Visibility ( mi km ) Precip ( " mm )
12:51 am 00:51 Clear 50 10 17 -8.3 27 27 ESE 6 9 30.25 1024 10 16.0934 N/A
1:51 am 01:51 Clear 50 10 15 -9.4 25 25 ESE 9 15 30.25 1024 10 16.0934 N/A
2:51 am 02:51 Clear 51 10.6 19 -7.2 28 28 ESE 12 19 30.25 1024 10 16.0934 N/A
3:51 am 03:51 Clear 50 10 18 -7.8 28 28 ESE 10 17 30.26 1025 10 16.0934 N/A
4:51 am 04:51 Clear 48 8.9 17 -8.3 29 29 ESE 10 17 30.28 1025 10 16.0934 N/A
5:51 am 05:51 Clear 48 8.9 18 -7.8 30 30 ESE 9 15 30.31 1027 10 16.0934 N/A
6:51 am 06:51 Clear 47 8.3 19 -7.2 33 33 ESE 10 17 30.33 1027 10 16.0934 N/A
7:51 am 07:51 Sunny 50 10 20 -6.7 30 30 ESE 9 15 30.35 1028 10 16.0934 N/A
8:51 am 08:51 Sunny 53 11.7 21 -6.1 28 28 SE 13 20 30.36 1028 10 16.0934 N/A
9:51 am 09:51 Sunny 56 13.3 22 -5.6 27 27 ESE 12 19 30.35 1028 10 16.0934 N/A
10:51 am 10:51 Sunny 61 16.1 23 -5 23 23 S 16 26 30.32 1027 10 16.0934 N/A
11:06 am 11:06 Sunny 62 16.7 23 -5 22 22 SSE 17 28 30.27 1025 10 16.0934 N/A
11:51 am 11:51 Sunny 64 17.8 23 -5 21 21 S 14 22 30.27 1025 10 16.0934 N/A
12:51 pm 12:51 Sunny 67 19.4 24 -4.4 20 20 SSE 15 24 30.22 1023 10 16.0934 N/A
1:51 pm 13:51 Sunny 69 20.6 24 -4.4 18 18 SSE 16 26 30.18 1022 10 16.0934 N/A
2:51 pm 14:51 Sunny 69 20.6 24 -4.4 18 18 S 13 20 30.16 1021 10 16.0934 N/A
3:51 pm 15:51 Sunny 69 20.6 25 -3.9 19 19 SSE 16 26 30.14 1021 10 16.0934 N/A
4:51 pm 16:51 Sunny 65 18.3 24 -4.4 21 21 SSE 9 15 30.14 1021 10 16.0934 N/A
5:51 pm 17:51 Clear 61 16.1 25 -3.9 25 25 SSE 7 11 30.17 1022 10 16.0934 N/A
6:51 pm 18:51 Clear 60 15.6 25 -3.9 26 26 E 10 17 30.18 1022 10 16.0934 N/A
7:51 pm 19:51 Clear 57 13.9 25 -3.9 29 29 E 12 19 30.19 1022 10 16.0934 N/A
8:51 pm 20:51 Clear 54 12.2 25 -3.9 33 33 SSE 10 17 30.19 1022 10 16.0934 N/A
9:51 pm 21:51 Clear 56 13.3 25 -3.9 30 30 SE 10 17 30.18 1022 10 16.0934 N/A
10:51 pm 22:51 Clear 57 13.9 24 -4.4 28 28 SE 12 19 30.18 1022 10 16.0934 N/A
11:51 pm 23:51 Clear with Light Rain 52 11.1 25 -3.9 35 35 ESE 9 15 30.16 1022 10 16.0934 N/A

Powered by AerisWeather